QPF
0.00 0.00 0.00 0.00 0.00 0.00 0.00 0.00 0.00 0.00 0.00 0.00 0.00 0.00 0.01 0.01 0.02 0.02 0.01 0.01 0.01 0.00 0.00 0.01 0.01 0.03 0.06 0.09 0.10 0.12 0.16 0.19 0.19 0.20 0.22 0.25 0.28 0.28 0.20 0.12 0.04 0.01 0.00
0.00 0.00 0.00 0.00 0.00 0.00 0.00 0.00 0.00 0.00 0.00 0.00 0.00 0.00 0.00 0.01 0.01 0.02 0.02 0.02 0.02 0.01 0.01 0.01 0.01 0.01 0.02 0.05 0.07 0.08 0.10 0.15 0.20 0.23 0.24 0.27 0.28 0.27 0.24 0.17 0.08 0.03 0.01
0.00 0.00 0.00 0.00 0.00 0.00 0.00 0.00 0.00 0.00 0.00 0.00 0.00 0.01 0.01 0.01 0.01 0.02 0.02 0.03 0.03 0.02 0.02 0.01 0.01 0.01 0.01 0.03 0.05 0.06 0.07 0.09 0.13 0.19 0.24 0.27 0.35 0.34 0.25 0.17 0.12 0.06 0.02
0.00 0.00 0.00 0.00 0.00 0.00 0.00 0.00 0.00 0.00 0.00 0.00 0.00 0.00 0.01 0.00 0.01 0.01 0.02 0.03 0.03 0.02 0.02 0.02 0.02 0.02 0.02 0.02 0.03 0.04 0.06 0.06 0.09 0.14 0.20 0.27 0.33 0.42 0.35 0.23 0.17 0.11 0.04
0.00 0.00 0.00 0.00 0.00 0.00 0.00 0.00 0.00 0.00 0.00 0.00 0.00 0.00 0.00 0.01 0.00 0.01 0.02 0.03 0.03 0.03 0.03 0.02 0.02 0.02 0.02 0.02 0.02 0.04 0.05 0.06 0.06 0.10 0.15 0.21 0.31 0.38 0.37 0.28 0.18 0.12 0.07
0.00 0.00 0.00 0.00 0.00 0.00 0.00 0.00 0.00 0.00 0.00 0.00 0.00 0.00 0.00 0.00 0.00 0.01 0.02 0.03 0.03 0.03 0.03 0.03 0.03 0.03 0.03 0.03 0.02 0.03 0.04 0.05 0.06 0.06 0.10 0.16 0.22 0.32 0.38 0.37 0.26 0.15 0.07
0.00 0.00 0.00 0.00 0.00 0.00 0.00 0.00 0.00 0.00 0.00 0.00 0.00 0.00 0.00 0.00 0.01 0.01 0.02 0.03 0.04 0.04 0.04 0.04 0.04 0.03 0.03 0.03 0.03 0.03 0.03 0.04 0.05 0.05 0.05 0.09 0.16 0.23 0.30 0.38 0.31 0.19 0.09
0.00 0.00 0.00 0.00 0.00 0.00 0.00 0.00 0.00 0.00 0.00 0.00 0.00 0.00 0.00 0.00 0.01 0.01 0.02 0.02 0.03 0.04 0.05 0.05 0.06 0.05 0.04 0.04 0.03 0.03 0.03 0.03 0.03 0.04 0.04 0.05 0.09 0.18 0.27 0.32 0.34 0.27 0.17
0.00 0.00 0.00 0.00 0.00 0.00 0.00 0.00 0.00 0.00 0.00 0.00 0.00 0.01 0.01 0.01 0.01 0.01 0.01 0.02 0.03 0.04 0.05 0.05 0.06 0.05 0.04 0.04 0.04 0.04 0.04 0.03 0.03 0.04 0.04 0.05 0.06 0.11 0.21 0.31 0.34 0.29 0.20
0.00 0.00 0.00 0.00 0.00 0.00 0.00 0.00 0.00 0.01 0.01 0.01 0.01 0.01 0.01 0.01 0.01 0.01 0.01 0.01 0.02 0.03 0.06 0.06 0.06 0.06 0.05 0.05 0.04 0.04 0.04 0.04 0.04 0.03 0.04 0.04 0.05 0.07 0.14 0.22 0.26 0.22 0.17
0.00 0.00 0.00 0.00 0.00 0.00 0.00 0.00 0.01 0.01 0.01 0.01 0.01 0.01 0.01 0.01 0.01 0.01 0.01 0.02 0.02 0.03 0.04 0.06 0.06 0.06 0.05 0.04 0.03 0.03 0.02 0.04 0.06 0.05 0.04 0.04 0.04 0.05 0.09 0.15 0.21 0.19 0.14
0.00 0.00 0.00 0.00 0.00 0.00 0.00 0.00 0.01 0.01 0.01 0.01 0.01 0.01 0.01 0.01 0.01 0.00 0.01 0.02 0.02 0.03 0.04 0.05 0.06 0.06 0.05 0.04 0.03 0.03 0.02 0.03 0.05 0.07 0.05 0.04 0.04 0.04 0.07 0.12 0.14 0.16 0.14
0.00 0.00 0.00 0.00 0.00 0.00 0.01 0.01 0.01 0.02 0.02 0.02 0.02 0.01 0.01 0.02 0.02 0.01 0.01 0.01 0.02 0.03 0.03 0.03 0.05 0.05 0.05 0.04 0.03 0.03 0.02 0.02 0.03 0.06 0.06 0.05 0.03 0.05 0.08 0.13 0.15 0.14 0.14
0.00 0.00 0.00 0.00 0.00 0.00 0.01 0.01 0.02 0.01 0.01 0.01 0.01 0.01 0.01 0.02 0.02 0.01 0.01 0.01 0.01 0.03 0.03 0.03 0.04 0.04 0.04 0.04 0.03 0.02 0.02 0.02 0.01 0.02 0.05 0.05 0.05 0.06 0.09 0.12 0.15 0.15 0.14
0.00 0.00 0.00 0.00 0.00 0.01 0.01 0.01 0.01 0.01 0.01 0.01 0.01 0.01 0.01 0.01 0.01 0.01 0.01 0.01 0.01 0.03 0.03 0.02 0.03 0.03 0.03 0.03 0.02 0.02 0.01 0.01 0.01 0.01 0.03 0.04 0.05 0.07 0.09 0.11 0.15 0.15 0.12
0.00 0.00 0.00 0.00 0.01 0.01 0.01 0.01 0.01 0.01 0.01 0.01 0.01 0.01 0.01 0.01 0.01 0.00 0.00 0.01 0.01 0.02 0.02 0.02 0.02 0.02 0.02 0.02 0.02 0.01 0.01 0.01 0.01 0.00 0.01 0.03 0.04 0.07 0.08 0.11 0.14 0.15 0.13
0.00 0.00 0.00 0.00 0.01 0.01 0.01 0.02 0.01 0.02 0.01 0.01 0.01 0.01 0.01 0.01 0.01 0.01 0.01 0.00 0.00 0.00 0.01 0.02 0.02 0.02 0.02 0.02 0.02 0.02 0.01 0.01 0.02 0.01 0.01 0.01 0.03 0.07 0.08 0.10 0.13 0.15 0.14
0.00 0.00 0.00 0.01 0.01 0.02 0.02 0.02 0.02 0.02 0.02 0.02 0.02 0.02 0.02 0.02 0.02 0.02 0.02 0.02 0.02 0.01 0.01 0.01 0.01 0.01 0.02 0.02 0.01 0.02 0.02 0.02 0.02 0.02 0.01 0.01 0.02 0.05 0.08 0.10 0.12 0.13 0.14
0.00 0.00 0.00 0.00 0.01 0.02 0.02 0.02 0.02 0.02 0.02 0.02 0.03 0.03 0.03 0.03 0.03 0.03 0.02 0.02 0.02 0.02 0.01 0.01 0.01 0.01 0.01 0.02 0.01 0.02 0.02 0.03 0.03 0.02 0.02 0.02 0.03 0.05 0.07 0.09 0.12 0.14 0.14
0.00 0.00 0.01 0.00 0.01 0.02 0.02 0.01 0.01 0.02 0.02 0.03 0.04 0.04 0.03 0.03 0.04 0.04 0.04 0.04 0.03 0.02 0.02 0.01 0.01 0.01 0.01 0.02 0.02 0.02 0.03 0.04 0.04 0.03 0.03 0.03 0.05 0.07 0.07 0.09 0.12 0.13 0.12
0.00 0.00 0.01 0.01 0.01 0.02 0.01 0.01 0.01 0.02 0.02 0.03 0.05 0.05 0.04 0.03 0.04 0.05 0.06 0.05 0.04 0.03 0.03 0.02 0.02 0.01 0.01 0.02 0.01 0.02 0.03 0.03 0.03 0.03 0.03 0.05 0.06 0.08 0.08 0.10 0.11 0.14 0.13
0.00 0.00 0.01 0.01 0.01 0.01 0.01 0.01 0.02 0.02 0.03 0.03 0.04 0.05 0.05 0.04 0.05 0.05 0.05 0.06 0.05 0.05 0.04 0.03 0.02 0.02 0.02 0.02 0.02 0.02 0.02 0.02 0.03 0.04 0.04 0.06 0.08 0.08 0.09 0.11 0.13 0.14 0.14
0.00 0.00 0.01 0.01 0.02 0.01 0.01 0.02 0.02 0.03 0.03 0.03 0.04 0.04 0.04 0.04 0.04 0.04 0.06 0.06 0.06 0.06 0.07 0.05 0.03 0.02 0.02 0.01 0.01 0.02 0.02 0.02 0.03 0.04 0.05 0.07 0.09 0.08 0.09 0.11 0.12 0.13 0.13
0.00 0.00 0.01 0.01 0.01 0.02 0.02 0.02 0.02 0.03 0.03 0.03 0.04 0.03 0.03 0.03 0.03 0.03 0.04 0.05 0.05 0.04 0.04 0.04 0.04 0.02 0.02 0.01 0.02 0.02 0.03 0.03 0.04 0.05 0.06 0.07 0.08 0.09 0.10 0.12 0.12 0.12 0.13
0.00 0.00 0.01 0.01 0.02 0.02 0.02 0.02 0.03 0.03 0.03 0.04 0.04 0.04 0.04 0.03 0.03 0.03 0.03 0.04 0.06 0.05 0.04 0.03 0.03 0.03 0.04 0.03 0.03 0.03 0.03 0.04 0.07 0.08 0.08 0.08 0.08 0.10 0.12 0.12 0.12 0.12 0.13
0.00 0.00 0.00 0.01 0.02 0.02 0.02 0.02 0.03 0.03 0.03 0.04 0.04 0.04 0.05 0.04 0.04 0.04 0.03 0.03 0.04 0.04 0.04 0.04 0.04 0.05 0.05 0.04 0.04 0.04 0.05 0.07 0.08 0.09 0.08 0.08 0.10 0.12 0.13 0.11 0.11 0.12 0.13
MSLP
1012.59 1012.50 1012.44 1012.38 1012.28 1012.14 1011.95 1011.71 1011.43 1011.15 1010.88 1010.64 1010.44 1010.29 1010.19 1010.14 1010.13 1010.16 1010.22 1010.32 1010.45 1010.61 1010.79 1010.95 1011.10 1011.20 1011.23 1011.20 1011.09 1010.94 1010.76 1010.60 1010.47 1010.43 1010.48 1010.63 1010.88 1011.21 1011.59 1011.98 1012.36 1012.70 1012.98
1012.51 1012.38 1012.28 1012.19 1012.08 1011.94 1011.76 1011.54 1011.29 1011.03 1010.76 1010.51 1010.29 1010.10 1009.94 1009.83 1009.75 1009.72 1009.73 1009.79 1009.90 1010.05 1010.23 1010.42 1010.60 1010.75 1010.85 1010.90 1010.89 1010.84 1010.77 1010.71 1010.68 1010.71 1010.83 1011.02 1011.29 1011.61 1011.97 1012.33 1012.68 1012.99 1013.25
1012.31 1012.17 1012.06 1011.96 1011.85 1011.71 1011.54 1011.34 1011.11 1010.86 1010.60 1010.35 1010.11 1009.88 1009.68 1009.50 1009.36 1009.25 1009.20 1009.21 1009.28 1009.40 1009.56 1009.76 1009.96 1010.16 1010.32 1010.45 1010.53 1010.59 1010.63 1010.67 1010.74 1010.85 1011.02 1011.24 1011.52 1011.84 1012.18 1012.52 1012.85 1013.16 1013.43
1012.04 1011.91 1011.80 1011.69 1011.57 1011.43 1011.26 1011.07 1010.85 1010.61 1010.37 1010.12 1009.86 1009.61 1009.37 1009.14 1008.94 1008.77 1008.65 1008.60 1008.61 1008.68 1008.82 1009.01 1009.22 1009.45 1009.67 1009.87 1010.04 1010.20 1010.34 1010.48 1010.63 1010.80 1011.01 1011.25 1011.53 1011.83 1012.16 1012.49 1012.83 1013.15 1013.46
1011.74 1011.63 1011.52 1011.40 1011.26 1011.10 1010.92 1010.71 1010.49 1010.26 1010.02 1009.78 1009.52 1009.26 1009.00 1008.73 1008.48 1008.26 1008.08 1007.97 1007.92 1007.94 1008.04 1008.21 1008.42 1008.67 1008.93 1009.19 1009.45 1009.68 1009.91 1010.12 1010.33 1010.55 1010.78 1011.03 1011.30 1011.60 1011.91 1012.24 1012.59 1012.95 1013.31
1011.46 1011.35 1011.23 1011.09 1010.92 1010.72 1010.50 1010.27 1010.03 1009.79 1009.55 1009.31 1009.06 1008.80 1008.53 1008.25 1007.97 1007.71 1007.49 1007.32 1007.22 1007.20 1007.26 1007.40 1007.60 1007.86 1008.16 1008.47 1008.78 1009.08 1009.37 1009.65 1009.91 1010.15 1010.39 1010.64 1010.90 1011.17 1011.47 1011.80 1012.17 1012.57 1013.01
1011.21 1011.11 1010.96 1010.77 1010.54 1010.28 1010.01 1009.72 1009.45 1009.19 1008.94 1008.70 1008.46 1008.21 1007.94 1007.66 1007.38 1007.10 1006.85 1006.64 1006.51 1006.45 1006.48 1006.60 1006.79 1007.06 1007.38 1007.72 1008.08 1008.44 1008.78 1009.10 1009.39 1009.66 1009.91 1010.14 1010.38 1010.64 1010.92 1011.25 1011.63 1012.07 1012.57
1011.02 1010.89 1010.70 1010.45 1010.14 1009.80 1009.44 1009.09 1008.76 1008.47 1008.20 1007.96 1007.73 1007.49 1007.24 1006.98 1006.70 1006.42 1006.16 1005.94 1005.78 1005.70 1005.71 1005.81 1006.00 1006.28 1006.61 1006.99 1007.39 1007.79 1008.18 1008.54 1008.86 1009.15 1009.40 1009.63 1009.85 1010.08 1010.35 1010.66 1011.05 1011.51 1012.05
1010.86 1010.68 1010.43 1010.09 1009.70 1009.26 1008.81 1008.39 1008.00 1007.66 1007.37 1007.11 1006.89 1006.67 1006.44 1006.20 1005.95 1005.69 1005.43 1005.22 1005.05 1004.96 1004.96 1005.05 1005.25 1005.52 1005.88 1006.29 1006.72 1007.17 1007.60 1008.00 1008.36 1008.67 1008.93 1009.16 1009.37 1009.58 1009.83 1010.12 1010.49 1010.95 1011.50
1010.68 1010.45 1010.12 1009.70 1009.21 1008.68 1008.15 1007.64 1007.19 1006.81 1006.49 1006.22 1006.00 1005.79 1005.59 1005.38 1005.15 1004.92 1004.69 1004.48 1004.33 1004.24 1004.24 1004.33 1004.53 1004.81 1005.18 1005.62 1006.09 1006.57 1007.05 1007.50 1007.90 1008.25 1008.53 1008.77 1008.98 1009.18 1009.40 1009.67 1010.01 1010.43 1010.96
1010.45 1010.16 1009.76 1009.26 1008.68 1008.07 1007.46 1006.89 1006.39 1005.97 1005.62 1005.35 1005.12 1004.93 1004.75 1004.57 1004.37 1004.17 1003.97 1003.79 1003.65 1003.57 1003.57 1003.67 1003.86 1004.16 1004.54 1004.99 1005.49 1006.01 1006.53 1007.03 1007.48 1007.87 1008.19 1008.46 1008.68 1008.87 1009.07 1009.31 1009.60 1009.98 1010.46
1010.14 1009.79 1009.33 1008.76 1008.12 1007.45 1006.79 1006.18 1005.64 1005.19 1004.83 1004.55 1004.33 1004.15 1003.99 1003.83 1003.67 1003.50 1003.33 1003.17 1003.05 1002.99 1003.00 1003.09 1003.29 1003.58 1003.95 1004.41 1004.93 1005.48 1006.03 1006.57 1007.07 1007.51 1007.88 1008.18 1008.43 1008.63 1008.81 1009.01 1009.26 1009.58 1010.00
1009.75 1009.35 1008.83 1008.22 1007.55 1006.85 1006.17 1005.54 1004.99 1004.53 1004.16 1003.88 1003.66 1003.49 1003.35 1003.22 1003.08 1002.94 1002.81 1002.68 1002.58 1002.53 1002.54 1002.64 1002.82 1003.09 1003.46 1003.91 1004.42 1004.98 1005.56 1006.13 1006.66 1007.15 1007.57 1007.91 1008.18 1008.40 1008.58 1008.76 1008.96 1009.22 1009.56
1009.29 1008.85 1008.30 1007.67 1006.99 1006.29 1005.62 1005.00 1004.45 1004.00 1003.64 1003.36 1003.15 1003.00 1002.87 1002.75 1002.64 1002.53 1002.43 1002.33 1002.25 1002.21 1002.23 1002.31 1002.48 1002.73 1003.06 1003.48 1003.98 1004.52 1005.10 1005.68 1006.24 1006.76 1007.22 1007.60 1007.91 1008.14 1008.33 1008.49 1008.66 1008.86 1009.14
1008.80 1008.33 1007.77 1007.14 1006.47 1005.80 1005.15 1004.56 1004.04 1003.61 1003.26 1002.99 1002.79 1002.64 1002.52 1002.43 1002.34 1002.25 1002.17 1002.10 1002.05 1002.03 1002.05 1002.12 1002.26 1002.48 1002.78 1003.16 1003.61 1004.12 1004.67 1005.24 1005.81 1006.34 1006.83 1007.24 1007.58 1007.84 1008.04 1008.20 1008.34 1008.51 1008.72
1008.32 1007.83 1007.27 1006.65 1006.02 1005.38 1004.78 1004.23 1003.74 1003.33 1003.00 1002.74 1002.54 1002.39 1002.27 1002.18 1002.11 1002.04 1001.99 1001.95 1001.92 1001.92 1001.95 1002.02 1002.15 1002.34 1002.59 1002.92 1003.32 1003.78 1004.29 1004.83 1005.37 1005.91 1006.40 1006.83 1007.19 1007.47 1007.69 1007.86 1007.99 1008.14 1008.31
1007.87 1007.37 1006.82 1006.23 1005.62 1005.03 1004.47 1003.96 1003.51 1003.12 1002.79 1002.53 1002.32 1002.16 1002.03 1001.94 1001.87 1001.83 1001.80 1001.78 1001.79 1001.81 1001.86 1001.95 1002.07 1002.23 1002.46 1002.74 1003.08 1003.49 1003.94 1004.43 1004.94 1005.45 1005.93 1006.37 1006.74 1007.05 1007.28 1007.46 1007.61 1007.75 1007.90
1007.47 1006.97 1006.42 1005.86 1005.29 1004.73 1004.21 1003.73 1003.30 1002.91 1002.58 1002.30 1002.07 1001.89 1001.74 1001.63 1001.56 1001.52 1001.50 1001.52 1001.56 1001.62 1001.70 1001.81 1001.94 1002.11 1002.31 1002.56 1002.86 1003.21 1003.60 1004.04 1004.50 1004.97 1005.43 1005.85 1006.23 1006.55 1006.81 1007.01 1007.18 1007.33 1007.49
1007.11 1006.61 1006.07 1005.53 1004.98 1004.46 1003.96 1003.49 1003.06 1002.67 1002.32 1002.01 1001.75 1001.52 1001.33 1001.19 1001.10 1001.05 1001.05 1001.09 1001.16 1001.26 1001.39 1001.53 1001.69 1001.87 1002.08 1002.31 1002.58 1002.89 1003.23 1003.61 1004.02 1004.45 1004.87 1005.27 1005.65 1005.97 1006.25 1006.48 1006.68 1006.86 1007.05
1006.77 1006.27 1005.74 1005.21 1004.68 1004.17 1003.68 1003.22 1002.78 1002.37 1001.99 1001.64 1001.32 1001.04 1000.80 1000.62 1000.49 1000.42 1000.42 1000.47 1000.57 1000.71 1000.88 1001.07 1001.27 1001.49 1001.71 1001.95 1002.20 1002.48 1002.78 1003.12 1003.47 1003.85 1004.23 1004.61 1004.97 1005.30 1005.60 1005.86 1006.10 1006.33 1006.56
1006.43 1005.93 1005.41 1004.88 1004.36 1003.86 1003.37 1002.90 1002.45 1002.01 1001.59 1001.19 1000.81 1000.47 1000.18 999.94 999.77 999.67 999.64 999.69 999.81 999.98 1000.19 1000.42 1000.67 1000.92 1001.18 1001.43 1001.69 1001.95 1002.22 1002.51 1002.82 1003.15 1003.49 1003.83 1004.18 1004.51 1004.83 1005.13 1005.42 1005.71 1006.00
1006.07 1005.57 1005.05 1004.52 1004.01 1003.51 1003.02 1002.54 1002.07 1001.61 1001.16 1000.72 1000.29 999.89 999.54 999.24 999.01 998.87 998.82 998.85 998.97 999.15 999.38 999.65 999.94 1000.23 1000.51 1000.78 1001.04 1001.29 1001.54 1001.80 1002.06 1002.34 1002.64 1002.96 1003.28 1003.62 1003.96 1004.30 1004.64 1004.99 1005.36
1005.68 1005.19 1004.67 1004.15 1003.63 1003.13 1002.65 1002.17 1001.70 1001.23 1000.76 1000.29 999.83 999.39 998.99 998.64 998.36 998.17 998.08 998.08 998.18 998.35 998.59 998.87 999.18 999.49 999.79 1000.07 1000.33 1000.57 1000.79 1001.01 1001.24 1001.48 1001.73 1002.01 1002.32 1002.65 1003.01 1003.39 1003.79 1004.21 1004.66
1005.29 1004.80 1004.28 1003.77 1003.26 1002.77 1002.29 1001.83 1001.38 1000.92 1000.45 999.98 999.52 999.06 998.63 998.25 997.93 997.70 997.56 997.52 997.59 997.73 997.95 998.22 998.52 998.82 999.12 999.40 999.65 999.87 1000.06 1000.25 1000.43 1000.62 1000.84 1001.08 1001.37 1001.70 1002.07 1002.49 1002.94 1003.42 1003.94
1004.92 1004.43 1003.93 1003.42 1002.92 1002.46 1002.01 1001.58 1001.16 1000.74 1000.31 999.87 999.42 998.98 998.55 998.16 997.82 997.55 997.37 997.29 997.31 997.41 997.59 997.82 998.09 998.36 998.64 998.89 999.11 999.30 999.45 999.60 999.73 999.88 1000.05 1000.27 1000.53 1000.85 1001.23 1001.67 1002.16 1002.70 1003.28
1004.61 1004.14 1003.64 1003.15 1002.68 1002.24 1001.83 1001.45 1001.09 1000.73 1000.36 999.98 999.58 999.18 998.78 998.40 998.06 997.78 997.57 997.44 997.41 997.45 997.57 997.75 997.97 998.20 998.42 998.63 998.81 998.95 999.06 999.16 999.25 999.35 999.48 999.66 999.89 1000.20 1000.58 1001.03 1001.55 1002.12 1002.75
Thickness
5654 5649 5643 5638 5634 5630 5626 5622 5619 5617 5614 5612 5610 5609 5608 5608 5608 5608 5609 5610 5612 5615 5618 5620 5623 5627 5631 5635 5639 5645 5650 5655 5659 5667 5676 5681 5685 5689 5691 5694 5697 5700 5703
5647 5641 5636 5631 5626 5621 5617 5614 5610 5607 5604 5602 5600 5598 5597 5596 5596 5595 5596 5599 5600 5603 5606 5609 5612 5616 5619 5623 5628 5633 5638 5644 5650 5655 5662 5669 5674 5679 5682 5683 5687 5690 5693
5640 5634 5628 5623 5618 5613 5609 5605 5601 5597 5594 5591 5589 5586 5585 5585 5584 5584 5584 5586 5588 5591 5594 5597 5600 5603 5607 5611 5616 5621 5627 5634 5640 5646 5651 5658 5664 5669 5671 5673 5676 5680 5682
5633 5627 5620 5615 5610 5606 5601 5597 5592 5588 5584 5581 5578 5576 5574 5573 5573 5573 5573 5574 5575 5578 5582 5585 5589 5592 5597 5600 5605 5609 5615 5620 5627 5634 5640 5646 5652 5658 5662 5664 5665 5669 5672
5626 5619 5614 5609 5604 5599 5594 5589 5584 5580 5577 5573 5569 5566 5564 5562 5562 5561 5560 5561 5562 5564 5568 5572 5577 5581 5586 5590 5595 5599 5604 5609 5615 5622 5629 5636 5642 5648 5653 5657 5658 5659 5661
5619 5613 5608 5603 5598 5592 5587 5582 5577 5572 5568 5564 5560 5557 5554 5554 5553 5551 5548 5547 5547 5549 5553 5557 5563 5569 5574 5579 5585 5590 5594 5599 5604 5611 5619 5626 5634 5640 5646 5649 5651 5653 5654
5613 5607 5602 5597 5591 5586 5581 5575 5570 5565 5560 5555 5551 5548 5545 5543 5541 5539 5537 5535 5534 5535 5538 5542 5549 5557 5562 5566 5572 5578 5584 5591 5597 5603 5610 5617 5625 5633 5637 5641 5646 5650 5652
5608 5602 5596 5591 5585 5580 5574 5569 5564 5559 5553 5549 5545 5541 5538 5536 5533 5530 5527 5525 5524 5524 5526 5530 5535 5542 5549 5554 5559 5565 5572 5579 5588 5595 5603 5610 5616 5623 5630 5636 5640 5641 5642
5603 5597 5592 5586 5580 5575 5569 5564 5559 5553 5549 5544 5540 5536 5532 5529 5526 5522 5519 5515 5515 5516 5517 5521 5524 5530 5538 5544 5548 5554 5560 5567 5575 5584 5592 5600 5607 5615 5621 5624 5628 5631 5634
5598 5593 5587 5581 5575 5570 5565 5560 5555 5549 5545 5541 5536 5532 5527 5523 5521 5517 5514 5510 5508 5508 5509 5512 5517 5522 5527 5533 5539 5544 5550 5557 5565 5573 5580 5587 5595 5604 5611 5618 5624 5628 5632
5594 5588 5583 5577 5571 5567 5562 5557 5552 5547 5542 5537 5532 5528 5523 5520 5517 5514 5511 5506 5504 5503 5504 5507 5511 5516 5520 5525 5531 5537 5544 5549 5555 5562 5569 5576 5584 5592 5600 5608 5615 5623 5629
5590 5584 5578 5574 5569 5566 5559 5554 5549 5544 5538 5534 5528 5524 5520 5516 5514 5511 5509 5506 5503 5501 5502 5504 5507 5511 5515 5520 5525 5531 5536 5541 5547 5553 5560 5567 5574 5582 5590 5598 5606 5615 5623
5585 5579 5574 5570 5565 5561 5556 5551 5547 5541 5536 5531 5525 5520 5516 5513 5510 5509 5507 5504 5502 5499 5500 5502 5506 5509 5512 5516 5521 5525 5530 5534 5540 5545 5552 5560 5567 5575 5581 5589 5596 5605 5612
5581 5576 5571 5567 5563 5559 5554 5550 5545 5540 5534 5528 5523 5518 5514 5510 5507 5504 5502 5501 5499 5498 5498 5501 5505 5507 5510 5514 5518 5521 5525 5530 5536 5541 5547 5553 5560 5567 5574 5582 5589 5596 5602
5578 5573 5569 5565 5560 5557 5554 5549 5544 5540 5534 5528 5523 5517 5512 5509 5506 5503 5500 5498 5497 5497 5497 5498 5500 5503 5506 5510 5514 5518 5522 5526 5531 5536 5541 5546 5553 5561 5568 5575 5582 5588 5595
5575 5571 5567 5563 5559 5556 5552 5550 5547 5541 5537 5531 5524 5517 5513 5509 5506 5503 5501 5499 5497 5496 5496 5498 5501 5503 5507 5511 5514 5516 5519 5523 5528 5533 5537 5542 5548 5554 5561 5568 5575 5582 5590
5573 5569 5565 5562 5558 5555 5552 5548 5545 5543 5539 5533 5527 5521 5516 5511 5507 5503 5501 5498 5497 5496 5496 5499 5501 5504 5507 5511 5514 5517 5520 5524 5527 5531 5535 5539 5544 5549 5556 5563 5571 5577 5584
5572 5569 5565 5561 5558 5555 5552 5548 5544 5541 5537 5534 5530 5524 5519 5513 5508 5504 5500 5497 5496 5495 5497 5500 5502 5506 5509 5512 5516 5518 5521 5524 5527 5531 5535 5538 5542 5547 5553 5560 5567 5573 5579
5571 5567 5564 5562 5559 5556 5553 5550 5546 5542 5538 5535 5531 5526 5521 5515 5510 5505 5501 5499 5499 5499 5500 5502 5505 5508 5511 5515 5518 5521 5524 5526 5529 5532 5535 5538 5542 5546 5551 5557 5563 5569 5575
5569 5568 5565 5562 5559 5557 5554 5551 5548 5544 5540 5537 5533 5529 5523 5516 5512 5509 5506 5504 5503 5504 5505 5507 5509 5512 5515 5518 5520 5523 5525 5528 5530 5533 5535 5538 5541 5545 5550 5556 5561 5567 5572
5567 5565 5565 5562 5559 5557 5555 5552 5549 5545 5542 5539 5536 5532 5526 5521 5518 5516 5513 5511 5510 5510 5511 5513 5514 5516 5519 5521 5523 5525 5528 5530 5533 5534 5536 5538 5541 5545 5550 5555 5560 5565 5570
5565 5562 5561 5559 5559 5558 5556 5554 5551 5548 5545 5542 5538 5535 5531 5526 5523 5521 5520 5518 5517 5517 5517 5518 5519 5521 5522 5524 5526 5528 5530 5532 5535 5536 5538 5539 5542 5546 5550 5554 5559 5564 5569
5563 5561 5560 5560 5559 5559 5558 5555 5552 5550 5547 5544 5541 5537 5534 5530 5528 5526 5525 5523 5522 5522 5522 5523 5523 5524 5526 5528 5530 5532 5533 5535 5538 5540 5541 5542 5544 5547 5552 5556 5560 5564 5568
5561 5560 5559 5559 5559 5558 5557 5556 5554 5552 5549 5546 5543 5539 5536 5533 5531 5530 5528 5527 5527 5527 5527 5527 5528 5529 5530 5531 5532 5534 5536 5538 5540 5542 5544 5545 5547 5550 5553 5556 5560 5564 5568
5559 5559 5558 5557 5557 5557 5556 5556 5555 5553 5551 5548 5545 5542 5539 5536 5534 5533 5531 5530 5531 5531 5531 5531 5532 5533 5533 5534 5535 5536 5537 5539 5541 5543 5545 5548 5550 5552 5555 5558 5561 5564 5567
5557 5557 5556 5555 5555 5556 5556 5555 5554 5554 5552 5550 5548 5545 5542 5540 5538 5537 5536 5535 5535 5535 5534 5535 5535 5535 5536 5536 5536 5537 5538 5540 5541 5544 5547 5549 5551 5553 5556 5558 5561 5563 5566